GW2085 Weather Reports


Display with metric or nautical units.
time (UTC)temp
F
wind
direction
speed
MPH
gust
MPH
rain 1hr
in
rain 24hr
in
rain mn
in
humidity
%
barometer
mb
20260506151551 58 32 0.0 2.0 0.00 0.01 0.00 75 1018.5
20260506150058 56 65 0.0 3.0 0.00 0.01 0.00 82 1018.5
20260506144605 54 32 1.0 4.0 0.00 0.02 0.00 87 1018.5
20260506143054 52 0 0.0 2.0 0.00 0.02 0.00 91 1018.5
20260506141549 50 317 0.0 1.0 0.00 0.02 0.00 92 1018.4
20260506140054 49 0 0.0 0.0 0.00 0.02 0.00 92 1018.3
20260506134555 48 0 0.0 2.0 0.00 0.05 0.00 92 1018.3
20260506133057 47 0 0.0 0.0 0.00 0.05 0.00 91 1018.1
20260506131551 46 0 0.0 0.0 0.00 0.05 0.00 91 1017.9
20260506130052 46 0 0.0 0.0 0.00 0.05 0.00 91 1017.7
20260506124557 46 0 0.0 0.0 0.00 0.25 0.00 91 1017.6
20260506123053 46 0 0.0 0.0 0.00 0.25 0.00 91 1017.5
20260506121619 46 0 0.0 0.0 0.00 0.25 0.00 91 1017.5
20260506120050 46 0 0.0 0.0 0.00 0.25 0.00 90 1017.4
20260506114550 47 0 0.0 0.0 0.00 0.25 0.00 90 1017.4
20260506113051 47 0 0.0 0.0 0.00 0.25 0.00 90 1017.2
20260506111551 47 0 0.0 0.0 0.00 0.25 0.00 90 1017.3
20260506110051 48 0 0.0 0.0 0.00 0.25 0.00 90 1017.3
20260506104557 48 0 0.0 0.0 0.00 0.33 0.00 90 1017.3
20260506103055 48 0 0.0 0.0 0.00 0.33 0.00 89 1017.3
20260506101552 48 0 0.0 0.0 0.00 0.33 0.00 89 1017.3
20260506094608 48 344 0.0 0.0 0.00 0.46 0.00 89 1017.2
20260506093051 49 0 0.0 0.0 0.00 0.46 0.00 88 1017.1
20260506091552 49 0 0.0 0.0 0.00 0.46 0.00 88 1017.1
20260506090054 49 0 0.0 0.0 0.00 0.46 0.00 87 1017.2
20260506084556 50 0 0.0 0.0 0.00 0.47 0.00 87 1017.4
20260506083059 50 0 0.0 0.0 0.00 0.47 0.00 87 1017.5
20260506081550 51 0 0.0 1.0 0.00 0.47 0.00 87 1017.6
20260506080104 51 0 0.0 0.0 0.00 0.47 0.00 86 1017.8
20260506073106 51 0 0.0 0.0 0.00 0.48 0.00 85 1017.9
20260506071553 52 0 0.0 0.0 0.00 0.48 0.00 84 1017.9
20260506061551 53 0 0.0 0.0 0.00 0.48 0.48 80 1017.7
20260506044555 57 0 0.0 0.0 0.00 0.48 0.48 75 1017.2
20260506043056 57 0 0.0 0.0 0.00 0.48 0.48 74 1017.0
20260506041555 57 0 0.0 1.0 0.00 0.48 0.48 74 1016.9
20260506040055 57 0 0.0 2.0 0.00 0.48 0.48 74 1016.7
20260506034557 57 0 0.0 3.0 0.00 0.48 0.48 73 1016.5
20260506033106 57 0 0.0 2.0 0.00 0.48 0.48 72 1016.2
20260506031554 57 269 1.0 3.0 0.00 0.48 0.48 71 1016.1
20260506030104 57 249 1.0 3.0 0.00 0.48 0.48 69 1015.9
20260506024607 58 257 0.0 5.0 0.00 0.48 0.48 69 1015.6
20260506023100 58 153 0.0 8.0 0.00 0.48 0.48 68 1015.5
20260506021557 59 262 1.0 6.0 0.00 0.48 0.48 67 1015.3
20260506020053 59 276 1.0 5.0 0.00 0.48 0.48 65 1015.0
20260506014554 60 278 2.0 5.0 0.00 0.48 0.48 63 1015.0
20260506013101 61 252 2.0 7.0 0.00 0.48 0.48 61 1014.8
20260506011617 62 253 4.0 10.0 0.00 0.48 0.48 59 1014.7
20260506004552 63 283 3.0 9.0 0.00 0.48 0.48 52 1014.7
20260506003050 64 250 1.0 10.0 0.00 0.48 0.48 56 1014.5
20260506001550 64 257 3.0 11.0 0.00 0.48 0.48 56 1014.3
20260506000058 64 262 4.0 14.0 0.00 0.48 0.48 55 1014.4
20260505234552 64 264 4.0 11.0 0.00 0.48 0.48 55 1014.4
20260505233049 65 258 3.0 11.0 0.00 0.48 0.48 53 1014.4
20260505231555 66 73 2.0 9.0 0.00 0.48 0.48 51 1014.4
20260505230100 65 266 4.0 11.0 0.00 0.48 0.48 51 1014.5
20260505224554 65 262 6.0 12.0 0.00 0.48 0.48 49 1014.5
20260505223053 66 282 5.0 10.0 0.00 0.48 0.48 49 1014.5
20260505221601 64 167 5.0 13.0 0.00 0.48 0.48 51 1014.7
20260505220104 66 267 4.0 9.0 0.00 0.48 0.48 49 1014.8
20260505214553 65 248 7.0 12.0 0.00 0.48 0.48 48 1015.0
20260505213050 66 15 4.0 13.0 0.00 0.48 0.48 48 1015.0
20260505211549 66 266 4.0 13.0 0.00 0.48 0.48 53 1015.1
20260505210055 66 214 5.0 12.0 0.00 0.48 0.48 52 1015.1
20260505204557 67 220 2.0 10.0 0.00 0.48 0.48 51 1015.1
20260505203049 66 248 3.0 11.0 0.00 0.48 0.48 49 1015.2
20260505201551 66 271 3.0 10.0 0.00 0.48 0.48 52 1015.1
20260505200054 66 231 3.0 11.0 0.00 0.48 0.48 47 1015.2
20260505194558 66 276 2.0 11.0 0.00 0.48 0.48 51 1015.2
20260505193051 65 278 4.0 10.0 0.00 0.48 0.48 53 1015.4
20260505191554 63 267 2.0 10.0 0.00 0.48 0.48 57 1015.5
20260505190049 64 242 6.0 11.0 0.00 0.48 0.48 55 1015.5
20260505184553 65 236 4.0 8.0 0.00 0.48 0.48 60 1015.5
20260505183054 62 135 1.0 10.0 0.00 0.48 0.48 69 1015.5
20260505181555 60 288 1.0 4.0 0.00 0.48 0.48 81 1015.7
20260505180053 58 276 2.0 7.0 0.00 0.48 0.48 84 1015.6
20260505174551 57 240 1.0 6.0 0.00 0.48 0.48 90 1015.5
20260505173050 56 231 3.0 8.0 0.00 0.48 0.48 90 1015.4
20260505171550 56 0 1.0 3.0 0.00 0.48 0.48 92 1015.2
20260505170051 56 0 0.0 2.0 0.01 0.48 0.48 92 1015.1
20260505164600 56 187 0.0 2.0 0.01 0.48 0.48 93 1015.0
20260505163052 56 0 0.0 2.0 0.01 0.48 0.48 93 1014.9
20260505161555 55 153 0.0 1.0 0.01 0.48 0.48 92 1014.6
20260505153108 55 0 0.0 3.0 0.00 0.47 0.47 92 1014.3